EN

Hourly Weather Ludwin

Today, 29 November, Sunday

Time Temperature Precipitation Wind Pressure Humidity
00:00 -2°C° 0.2 mm 2 mps 748 mmHg 96%
01:00 -2°C° 0.2 mm 2 mps 748 mmHg 96%
02:00 0°C° 0 mm 1 mps 748 mmHg 96%
03:00 0°C° 0.1 mm 1 mps 748 mmHg 96%
04:00 0°C° 0.1 mm 1 mps 748 mmHg 97%
05:00 0°C° 0.1 mm 1 mps 748 mmHg 97%
06:00 0°C° 0 mm 1 mps 748 mmHg 97%
07:00 0°C° 0 mm 1 mps 748 mmHg 96%
08:00 0°C° 0 mm 1 mps 748 mmHg 95%
09:00 0°C° 0 mm 1 mps 748 mmHg 91%
10:00 +1°C° 0 mm 1 mps 748 mmHg 88%
11:00 +1°C° 0 mm 1 mps 749 mmHg 84%
12:00 +1°C° 0 mm 1 mps 749 mmHg 82%
13:00 +1°C° 0 mm 1 mps 749 mmHg 79%
14:00 +2°C° 0 mm 1 mps 749 mmHg 76%
15:00 +1°C° 0 mm 1 mps 749 mmHg 79%
16:00 -1°C° 0 mm 2 mps 749 mmHg 81%
17:00 -1°C° 0 mm 2 mps 749 mmHg 84%
18:00 -2°C° 0 mm 2 mps 749 mmHg 86%
19:00 0°C° 0 mm 1 mps 750 mmHg 89%
20:00 0°C° 0 mm 1 mps 750 mmHg 91%
21:00 -3°C° 0 mm 2 mps 750 mmHg 92%
22:00 -3°C° 0 mm 2 mps 750 mmHg 92%
23:00 -3°C° 0 mm 2 mps 750 mmHg 93%

Tomorrow, 30 November, Monday

Time Temperature Precipitation Wind Pressure Humidity
00:00 -3°C° 0.1 mm 2 mps 750 mmHg 93%
01:00 -3°C° 0.1 mm 2 mps 751 mmHg 94%
02:00 -3°C° 0.1 mm 2 mps 751 mmHg 94%
03:00 -2°C° 0.1 mm 2 mps 751 mmHg 94%
04:00 -2°C° 0.1 mm 3 mps 751 mmHg 93%
05:00 -2°C° 0.1 mm 3 mps 751 mmHg 93%
06:00 -4°C° 0 mm 3 mps 751 mmHg 93%
07:00 -4°C° 0 mm 3 mps 752 mmHg 92%
08:00 -4°C° 0 mm 3 mps 752 mmHg 92%
09:00 -2°C° 0 mm 3 mps 752 mmHg 90%
10:00 -2°C° 0 mm 3 mps 752 mmHg 88%
11:00 -2°C° 0 mm 3 mps 753 mmHg 86%
12:00 -1°C° 0 mm 3 mps 753 mmHg 82%
13:00 -1°C° 0 mm 3 mps 753 mmHg 78%
14:00 -1°C° 0 mm 3 mps 753 mmHg 75%
15:00 -1°C° 0 mm 3 mps 753 mmHg 75%
16:00 -1°C° 0 mm 2 mps 753 mmHg 75%
17:00 -2°C° 0 mm 2 mps 753 mmHg 75%
18:00 -1°C° 0 mm 2 mps 753 mmHg 75%
19:00 -1°C° 0 mm 2 mps 753 mmHg 75%
20:00 -1°C° 0 mm 2 mps 753 mmHg 74%
21:00 -1°C° 0 mm 2 mps 753 mmHg 75%
22:00 -1°C° 0 mm 2 mps 753 mmHg 75%
23:00 -1°C° 0 mm 2 mps 753 mmHg 75%

Day after tomorrow, 1 December, Tuesday

Time Temperature Precipitation Wind Pressure Humidity
00:00 -2°C° 0 mm 2 mps 753 mmHg 77%
01:00 -2°C° 0 mm 2 mps 753 mmHg 79%
02:00 -3°C° 0 mm 2 mps 753 mmHg 81%
03:00 -3°C° 0 mm 2 mps 753 mmHg 81%
04:00 -3°C° 0 mm 2 mps 753 mmHg 82%
05:00 -3°C° 0 mm 2 mps 753 mmHg 83%
06:00 -5°C° 0 mm 3 mps 753 mmHg 83%
07:00 -5°C° 0 mm 3 mps 753 mmHg 83%
08:00 -5°C° 0 mm 3 mps 753 mmHg 83%
09:00 -4°C° 0 mm 3 mps 753 mmHg 80%
10:00 -3°C° 0 mm 4 mps 753 mmHg 77%
11:00 -3°C° 0 mm 4 mps 753 mmHg 74%
12:00 -2°C° 0 mm 4 mps 753 mmHg 72%
13:00 -2°C° 0 mm 4 mps 753 mmHg 70%
14:00 -1°C° 0 mm 4 mps 753 mmHg 69%
15:00 -2°C° 0 mm 4 mps 753 mmHg 73%
16:00 -2°C° 0 mm 3 mps 753 mmHg 77%
17:00 -2°C° 0 mm 3 mps 753 mmHg 81%
18:00 -4°C° 0 mm 3 mps 753 mmHg 81%
19:00 -4°C° 0 mm 4 mps 753 mmHg 81%
20:00 -4°C° 0 mm 4 mps 754 mmHg 81%
21:00 -4°C° 0 mm 4 mps 754 mmHg 81%
22:00 -4°C° 0 mm 4 mps 754 mmHg 80%
23:00 -4°C° 0 mm 4 mps 754 mmHg 80%

2 December, Wednesday

Time Temperature Precipitation Wind Pressure Humidity
00:00 -4°C° 0 mm 4 mps 754 mmHg 80%
01:00 -4°C° 0 mm 3 mps 754 mmHg 80%
02:00 -5°C° 0 mm 3 mps 754 mmHg 80%
03:00 -5°C° 0 mm 4 mps 754 mmHg 80%
04:00 -5°C° 0 mm 4 mps 753 mmHg 80%
05:00 -5°C° 0 mm 4 mps 753 mmHg 81%
06:00 -5°C° 0 mm 4 mps 753 mmHg 81%
07:00 -5°C° 0 mm 4 mps 753 mmHg 81%
08:00 -5°C° 0 mm 4 mps 753 mmHg 82%
09:00 -5°C° 0 mm 4 mps 753 mmHg 80%
10:00 -4°C° 0 mm 4 mps 753 mmHg 79%
11:00 -4°C° 0 mm 4 mps 753 mmHg 77%
12:00 -3°C° 0 mm 4 mps 753 mmHg 78%
13:00 -3°C° 0 mm 4 mps 752 mmHg 79%
14:00 -1°C° 0 mm 3 mps 752 mmHg 79%
15:00 -2°C° 0 mm 3 mps 752 mmHg 83%
16:00 -2°C° 0 mm 3 mps 751 mmHg 88%
17:00 -4°C° 0 mm 3 mps 751 mmHg 92%
18:00 -4°C° 0 mm 4 mps 751 mmHg 93%
19:00 -4°C° 0 mm 4 mps 751 mmHg 94%
20:00 -5°C° 0 mm 5 mps 751 mmHg 95%
21:00 -3°C° 0 mm 4 mps 751 mmHg 93%
22:00 -3°C° 0 mm 4 mps 750 mmHg 91%
23:00 -3°C° 0 mm 4 mps 750 mmHg 89%

3 December, Thursday

Time Temperature Precipitation Wind Pressure Humidity
00:00 -3°C° 0 mm 4 mps 750 mmHg 88%
01:00 -3°C° 0 mm 4 mps 750 mmHg 87%
02:00 -3°C° 0 mm 4 mps 750 mmHg 86%
03:00 -3°C° 0 mm 4 mps 749 mmHg 85%
04:00 -3°C° 0 mm 4 mps 749 mmHg 84%
05:00 -3°C° 0 mm 4 mps 749 mmHg 83%
06:00 -3°C° 0 mm 4 mps 749 mmHg 84%
07:00 -3°C° 0 mm 4 mps 749 mmHg 86%
08:00 -3°C° 0 mm 4 mps 748 mmHg 87%
09:00 -3°C° 0 mm 4 mps 748 mmHg 85%
10:00 -2°C° 0 mm 4 mps 748 mmHg 84%
11:00 -2°C° 0 mm 5 mps 748 mmHg 82%
12:00 -2°C° 0 mm 5 mps 748 mmHg 81%
13:00 -2°C° 0 mm 5 mps 747 mmHg 80%
14:00 -1°C° 0 mm 5 mps 747 mmHg 80%
15:00 -2°C° 0 mm 5 mps 747 mmHg 81%
16:00 -2°C° 0 mm 5 mps 747 mmHg 83%
17:00 -2°C° 0 mm 5 mps 746 mmHg 85%
18:00 -2°C° 0 mm 5 mps 746 mmHg 85%
19:00 -2°C° 0 mm 5 mps 746 mmHg 85%
20:00 -3°C° 0 mm 6 mps 746 mmHg 85%
21:00 -4°C° 0 mm 6 mps 746 mmHg 84%
22:00 -4°C° 0 mm 6 mps 746 mmHg 84%
23:00 -4°C° 0 mm 6 mps 745 mmHg 84%

4 December, Friday

Time Temperature Precipitation Wind Pressure Humidity
00:00 -4°C° 0 mm 6 mps 745 mmHg 83%
01:00 -4°C° 0 mm 6 mps 745 mmHg 83%
02:00 -4°C° 0 mm 6 mps 745 mmHg 82%
03:00 -4°C° 0 mm 6 mps 745 mmHg 82%
04:00 -4°C° 0 mm 6 mps 744 mmHg 82%
05:00 -4°C° 0 mm 6 mps 744 mmHg 82%
06:00 -4°C° 0 mm 6 mps 744 mmHg 82%
07:00 -4°C° 0 mm 6 mps 744 mmHg 81%
08:00 -3°C° 0 mm 6 mps 743 mmHg 81%
09:00 -3°C° 0 mm 6 mps 743 mmHg 81%
10:00 -2°C° 0 mm 6 mps 743 mmHg 82%
11:00 -1°C° 0 mm 6 mps 743 mmHg 83%
12:00 -1°C° 0 mm 6 mps 743 mmHg 84%
13:00 +1°C° 0 mm 5 mps 743 mmHg 84%
14:00 +2°C° 0 mm 5 mps 743 mmHg 85%
15:00 +2°C° 0 mm 5 mps 742 mmHg 87%
16:00 +1°C° 0 mm 5 mps 742 mmHg 89%
17:00 +1°C° 0 mm 4 mps 742 mmHg 91%
18:00 +1°C° 0 mm 5 mps 742 mmHg 91%
19:00 +1°C° 0 mm 5 mps 742 mmHg 91%
20:00 +1°C° 0 mm 5 mps 742 mmHg 91%
21:00 +1°C° 0 mm 5 mps 742 mmHg 92%
22:00 +1°C° 0 mm 5 mps 742 mmHg 93%
23:00 +1°C° 0 mm 5 mps 743 mmHg 93%
Show more